This is the latest recevied weather packets stored in our database for station/object AB8Y-13. If no packets are shown the sender has not sent any weather packets the latest 10 day(s).
| Time | Temp. | Humidity | Pressure | Rain* | Wind** | Luminosity | Snow |
|---|---|---|---|---|---|---|---|
| 1777509881 | 7.78° C | 71% | 1013 hPa | 0 mm | - | 0 W/m² | - |
| 1777509576 | 7.78° C | 70% | 1013 hPa | 0 mm | - | 1 W/m² | - |
| 1777509273 | 7.78° C | 70% | 1012.9 hPa | 0 mm | - | 1 W/m² | - |
| 1777508971 | 7.78° C | 70% | 1012.9 hPa | 0 mm | - | 2 W/m² | - |
| 1777508668 | 7.78° C | 72% | 1012.7 hPa | 0 mm | - | 2 W/m² | - |
| 1777508365 | 7.78° C | 70% | 1012.7 hPa | 0 mm | - | 3 W/m² | - |
| 1777508062 | 8.33° C | 70% | 1012.8 hPa | 0 mm | - | 4 W/m² | - |
| 1777507759 | 8.33° C | 73% | 1012.4 hPa | 0 mm | - | 5 W/m² | - |
| 1777507456 | 8.33° C | 72% | 1012.6 hPa | 0 mm | - | 6 W/m² | - |
| 1777507153 | 8.33° C | 70% | 1012.7 hPa | 0 mm | - | 8 W/m² | - |
| 1777506851 | 8.33° C | 72% | 1012.2 hPa | 0 mm | - | 12 W/m² | - |
| 1777506548 | 8.33° C | 73% | 1012.3 hPa | 0 mm | - | 14 W/m² | - |
| 1777506243 | 8.33° C | 70% | 1012.2 hPa | 0 mm | - | 20 W/m² | - |
| 1777505940 | 8.33° C | 70% | 1012.1 hPa | 0 mm | - | 24 W/m² | - |
| 1777505635 | 8.33° C | 71% | 1012.2 hPa | 0 mm | - | 19 W/m² | - |
| 1777505332 | 8.89° C | 72% | 1012.2 hPa | 0 mm | - | 20 W/m² | - |
| 1777505029 | 8.89° C | 70% | 1012.1 hPa | 0 mm | - | 18 W/m² | - |
| 1777504726 | 8.89° C | 72% | 1012.2 hPa | 0 mm | - | 21 W/m² | - |
| 1777504423 | 8.89° C | 72% | 1012 hPa | 0 mm | - | 33 W/m² | - |
| 1777504118 | 8.89° C | 72% | 1011.9 hPa | 0 mm | - | 41 W/m² | - |
| 1777503814 | 8.89° C | 71% | 1012 hPa | 0 mm | - | 27 W/m² | - |
| 1777503511 | 8.89° C | 71% | 1012.1 hPa | 0 mm | - | 38 W/m² | - |
| 1777503207 | 8.89° C | 71% | 1012.2 hPa | 0 mm | - | 47 W/m² | - |
| 1777502904 | 8.89° C | 72% | 1011.9 hPa | 0 mm | - | 42 W/m² | - |
| 1777502602 | 8.89° C | 71% | 1012 hPa | 0 mm | - | 60 W/m² | - |
* Rain latest hour (hover to see other rain measurements)
** Current wind speed in m/s (hover to see current wind gust speed)